owner,sensor,date,latitude,longitude,vertical_datum,sea_water_temperature,qcFlag
Shell,ioos:station:wmo:42873:2,2022-08-01T00:09:00Z,28.1937,-89.1758,11.2,30.5,11111222
Shell,ioos:station:wmo:42873:2,2022-08-01T00:19:00Z,28.1937,-89.1759,11.2,30.5,11111222
Shell,ioos:station:wmo:42873:2,2022-08-01T00:29:00Z,28.1938,-89.1757,11.2,30.5,11111222
Shell,ioos:station:wmo:42873:2,2022-08-01T00:39:00Z,28.1939,-89.1754,11.2,30.6,11111222
Shell,ioos:station:wmo:42873:2,2022-08-01T00:49:00Z,28.1937,-89.1758,11.2,30.6,11111222
Shell,ioos:station:wmo:42873:2,2022-08-01T00:59:00Z,28.1940,-89.1757,11.2,30.6,11111222
Shell,ioos:station:wmo:42873:2,2022-08-01T01:09:00Z,28.1939,-89.1759,11.2,30.6,11111222
Shell,ioos:station:wmo:42873:2,2022-08-01T01:19:00Z,28.1939,-89.1758,11.2,30.6,11111222
Shell,ioos:station:wmo:42873:2,2022-08-01T01:29:00Z,28.1937,-89.1758,11.2,30.6,11111222
Shell,ioos:station:wmo:42873:2,2022-08-01T01:39:00Z,28.1937,-89.1759,11.2,30.6,11111222
Shell,ioos:station:wmo:42873:2,2022-08-01T01:49:00Z,28.1938,-89.1759,11.2,30.6,11111222
Shell,ioos:station:wmo:42873:2,2022-08-01T01:59:00Z,28.1939,-89.1759,11.2,30.6,11111222
Shell,ioos:station:wmo:42873:2,2022-08-01T02:09:00Z,28.1939,-89.1759,11.3,30.6,11111222
Shell,ioos:station:wmo:42873:2,2022-08-01T02:19:00Z,28.1938,-89.1759,11.3,30.6,11111222
Shell,ioos:station:wmo:42873:2,2022-08-01T02:29:00Z,28.1938,-89.1758,11.1,30.6,11111222
Shell,ioos:station:wmo:42873:2,2022-08-01T02:39:00Z,28.1936,-89.1759,11.2,30.6,11111222
Shell,ioos:station:wmo:42873:2,2022-08-01T02:49:00Z,28.1937,-89.1759,11.3,30.6,11111222
Shell,ioos:station:wmo:42873:2,2022-08-01T02:59:00Z,28.1940,-89.1757,11.3,30.6,11111222
Shell,ioos:station:wmo:42873:2,2022-08-01T03:09:00Z,28.1937,-89.1758,11.4,30.6,11111222
Shell,ioos:station:wmo:42873:2,2022-08-01T03:19:00Z,28.1936,-89.1759,11.3,30.6,11111222
Shell,ioos:station:wmo:42873:2,2022-08-01T03:29:00Z,28.1937,-89.1759,11.2,30.6,11111222
Shell,ioos:station:wmo:42873:2,2022-08-01T03:39:00Z,28.1935,-89.1759,11.2,30.5,11111222
Shell,ioos:station:wmo:42873:2,2022-08-01T03:49:00Z,28.1937,-89.1758,11.5,30.5,11111222
Shell,ioos:station:wmo:42873:2,2022-08-01T03:59:00Z,28.1937,-89.1759,11.5,30.5,11111222
Shell,ioos:station:wmo:42873:2,2022-08-01T04:09:00Z,28.1937,-89.1758,11.5,30.5,11111222
Shell,ioos:station:wmo:42873:2,2022-08-01T04:19:00Z,28.1937,-89.1758,11.4,30.5,11111222
Shell,ioos:station:wmo:42873:2,2022-08-01T04:29:00Z,28.1937,-89.1758,11.4,30.5,11111222
Shell,ioos:station:wmo:42873:2,2022-08-01T04:39:00Z,28.1937,-89.1759,11.5,30.5,11111222
Shell,ioos:station:wmo:42873:2,2022-08-01T04:49:00Z,28.1938,-89.1758,11.5,30.5,11111222
Shell,ioos:station:wmo:42873:2,2022-08-01T04:59:00Z,28.1936,-89.1759,11.5,30.4,11111222
Shell,ioos:station:wmo:42873:2,2022-08-01T05:09:00Z,28.1936,-89.1759,11.6,30.4,11111222
Shell,ioos:station:wmo:42873:2,2022-08-01T05:19:00Z,28.1937,-89.1759,11.6,30.4,11111222
Shell,ioos:station:wmo:42873:2,2022-08-01T05:29:00Z,28.1938,-89.1759,11.7,30.4,11111222
Shell,ioos:station:wmo:42873:2,2022-08-01T05:39:00Z,28.1938,-89.1759,11.7,30.4,11111222
Shell,ioos:station:wmo:42873:2,2022-08-01T05:49:00Z,28.1938,-89.1758,11.7,30.4,11111222
Shell,ioos:station:wmo:42873:2,2022-08-01T05:59:00Z,28.1937,-89.1759,11.7,30.4,11111222
Shell,ioos:station:wmo:42873:2,2022-08-01T06:09:00Z,28.1937,-89.1758,11.8,30.4,11111222
Shell,ioos:station:wmo:42873:2,2022-08-01T06:20:00Z,28.1937,-89.1759,11.9,30.4,11111222
Shell,ioos:station:wmo:42873:2,2022-08-01T06:30:00Z,28.1939,-89.1758,11.9,30.4,11111222
Shell,ioos:station:wmo:42873:2,2022-08-01T06:40:00Z,28.1938,-89.1758,11.9,30.4,11111222
Shell,ioos:station:wmo:42873:2,2022-08-01T06:50:00Z,28.1940,-89.1759,11.8,30.4,11111222
Shell,ioos:station:wmo:42873:2,2022-08-01T07:00:00Z,28.1936,-89.1758,11.8,30.4,11111222
Shell,ioos:station:wmo:42873:2,2022-08-01T07:10:00Z,28.1937,-89.1759,11.8,30.4,11111222
Shell,ioos:station:wmo:42873:2,2022-08-01T07:20:00Z,28.1938,-89.1758,11.8,30.5,11111222
Shell,ioos:station:wmo:42873:2,2022-08-01T07:30:00Z,28.1937,-89.1759,11.8,30.5,11111222
Shell,ioos:station:wmo:42873:2,2022-08-01T07:40:00Z,28.1937,-89.1758,11.8,30.5,11111222
Shell,ioos:station:wmo:42873:2,2022-08-01T07:50:00Z,28.1938,-89.1758,11.8,30.4,11111222
Shell,ioos:station:wmo:42873:2,2022-08-01T08:00:00Z,28.1939,-89.1758,11.8,30.4,11111222
Shell,ioos:station:wmo:42873:2,2022-08-01T08:10:00Z,28.1936,-89.1759,11.8,30.4,11111222
Shell,ioos:station:wmo:42873:2,2022-08-01T08:20:00Z,28.1938,-89.1758,11.8,30.4,11111222
Shell,ioos:station:wmo:42873:2,2022-08-01T08:30:00Z,28.1936,-89.1759,11.8,30.4,11111222
Shell,ioos:station:wmo:42873:2,2022-08-01T08:40:00Z,28.1937,-89.1759,11.7,30.4,11111222
Shell,ioos:station:wmo:42873:2,2022-08-01T08:50:00Z,28.1938,-89.1758,11.7,30.4,11111222
Shell,ioos:station:wmo:42873:2,2022-08-01T09:00:00Z,28.1935,-89.1761,11.8,30.4,11111222
Shell,ioos:station:wmo:42873:2,2022-08-01T09:10:00Z,28.1935,-89.1761,11.8,30.4,11111222
Shell,ioos:station:wmo:42873:2,2022-08-01T09:20:00Z,28.1938,-89.1758,11.8,30.4,11111222
Shell,ioos:station:wmo:42873:2,2022-08-01T09:30:00Z,28.1937,-89.1759,11.8,30.4,11111222
Shell,ioos:station:wmo:42873:2,2022-08-01T09:40:00Z,28.1936,-89.1759,11.8,30.4,11111222
Shell,ioos:station:wmo:42873:2,2022-08-01T09:50:00Z,28.1936,-89.1759,11.8,30.5,11111222
Shell,ioos:station:wmo:42873:2,2022-08-01T10:00:00Z,28.1937,-89.1758,11.8,30.5,11111222
Shell,ioos:station:wmo:42873:2,2022-08-01T10:10:00Z,28.1939,-89.1758,11.8,30.4,11111222
Shell,ioos:station:wmo:42873:2,2022-08-01T10:20:00Z,28.1940,-89.1761,11.8,30.4,11111222
Shell,ioos:station:wmo:42873:2,2022-08-01T10:30:00Z,28.1937,-89.1762,11.8,30.4,11111222
Shell,ioos:station:wmo:42873:2,2022-08-01T10:40:00Z,28.1937,-89.1759,11.8,30.5,11111222
Shell,ioos:station:wmo:42873:2,2022-08-01T10:50:00Z,28.1939,-89.1759,11.8,30.5,11111222
Shell,ioos:station:wmo:42873:2,2022-08-01T11:00:00Z,28.1937,-89.1761,11.8,30.5,11111222
Shell,ioos:station:wmo:42873:2,2022-08-01T11:10:00Z,28.1936,-89.1760,11.8,30.5,11111222
Shell,ioos:station:wmo:42873:2,2022-08-01T11:20:00Z,28.1937,-89.1758,11.8,30.5,11111222
Shell,ioos:station:wmo:42873:2,2022-08-01T11:30:00Z,28.1938,-89.1757,11.8,30.5,11111222
Shell,ioos:station:wmo:42873:2,2022-08-01T11:40:00Z,28.1937,-89.1758,11.8,30.5,11111222
Shell,ioos:station:wmo:42873:2,2022-08-01T11:50:00Z,28.1937,-89.1759,11.8,30.4,11111222
Shell,ioos:station:wmo:42873:2,2022-08-01T12:00:00Z,28.1937,-89.1758,11.8,30.4,11111222
Shell,ioos:station:wmo:42873:2,2022-08-01T12:10:00Z,28.1938,-89.1758,11.8,30.4,11111222
Shell,ioos:station:wmo:42873:2,2022-08-01T12:20:00Z,28.1937,-89.1758,11.9,30.4,11111222
Shell,ioos:station:wmo:42873:2,2022-08-01T12:30:00Z,28.1937,-89.1759,11.9,30.4,11111222
Shell,ioos:station:wmo:42873:2,2022-08-01T12:40:00Z,28.1938,-89.1758,11.9,30.4,11111222
Shell,ioos:station:wmo:42873:2,2022-08-01T12:50:00Z,28.1940,-89.1758,11.9,30.4,11111222
Shell,ioos:station:wmo:42873:2,2022-08-01T13:00:00Z,28.1941,-89.1758,11.9,30.4,11111222
Shell,ioos:station:wmo:42873:2,2022-08-01T13:10:00Z,28.1938,-89.1759,11.9,30.4,11111222
Shell,ioos:station:wmo:42873:2,2022-08-01T13:20:00Z,28.1937,-89.1759,11.9,30.4,11111222
Shell,ioos:station:wmo:42873:2,2022-08-01T13:40:00Z,28.1938,-89.1759,11.8,30.4,11111222
Shell,ioos:station:wmo:42873:2,2022-08-01T13:50:00Z,28.1937,-89.1759,11.7,30.4,11111222
Shell,ioos:station:wmo:42873:2,2022-08-01T14:00:00Z,28.1939,-89.1759,11.7,30.4,11111222
Shell,ioos:station:wmo:42873:2,2022-08-01T14:10:00Z,28.1929,-89.1761,11.8,30.4,11111222
Shell,ioos:station:wmo:42873:2,2022-08-01T14:20:00Z,28.1939,-89.1758,11.8,30.4,11111222
Shell,ioos:station:wmo:42873:2,2022-08-01T14:30:00Z,28.1937,-89.1758,11.8,30.4,11111222
Shell,ioos:station:wmo:42873:2,2022-08-01T14:40:00Z,28.1937,-89.1759,11.8,30.4,11111222
Shell,ioos:station:wmo:42873:2,2022-08-01T14:50:00Z,28.1937,-89.1759,11.8,30.4,11111222
Shell,ioos:station:wmo:42873:2,2022-08-01T15:00:00Z,28.1938,-89.1758,11.8,30.4,11111222
Shell,ioos:station:wmo:42873:2,2022-08-01T15:10:00Z,28.1937,-89.1759,11.8,30.4,11111222
Shell,ioos:station:wmo:42873:2,2022-08-01T15:20:00Z,28.1937,-89.1758,11.8,30.4,11111222
Shell,ioos:station:wmo:42873:2,2022-08-01T15:30:00Z,28.1937,-89.1758,11.8,30.4,11111222
Shell,ioos:station:wmo:42873:2,2022-08-01T15:40:00Z,28.1938,-89.1758,11.8,30.4,11111222
Shell,ioos:station:wmo:42873:2,2022-08-01T15:50:00Z,28.1938,-89.1758,11.8,30.4,11111222
Shell,ioos:station:wmo:42873:2,2022-08-01T16:01:00Z,28.1938,-89.1757,11.8,30.4,11111222
Shell,ioos:station:wmo:42873:2,2022-08-01T16:11:00Z,28.1938,-89.1758,11.8,30.4,11111222
Shell,ioos:station:wmo:42873:2,2022-08-01T16:21:00Z,28.1936,-89.1759,11.8,30.4,11111222
Shell,ioos:station:wmo:42873:2,2022-08-01T16:31:00Z,28.1938,-89.1758,11.8,30.4,11111222
Shell,ioos:station:wmo:42873:2,2022-08-01T16:41:00Z,28.1939,-89.1759,11.8,30.4,11111222
Shell,ioos:station:wmo:42873:2,2022-08-01T16:51:00Z,28.1934,-89.1760,11.8,30.4,11111222
Shell,ioos:station:wmo:42873:2,2022-08-01T17:01:00Z,28.1937,-89.1759,11.8,30.4,11111222
Shell,ioos:station:wmo:42873:2,2022-08-01T17:11:00Z,28.1938,-89.1759,11.7,30.4,11111222
Shell,ioos:station:wmo:42873:2,2022-08-01T17:21:00Z,28.1937,-89.1759,11.7,30.4,11111222
Shell,ioos:station:wmo:42873:2,2022-08-01T17:31:00Z,28.1938,-89.1758,11.7,30.4,11111222
Shell,ioos:station:wmo:42873:2,2022-08-01T17:41:00Z,28.1937,-89.1758,11.7,30.4,11111222
Shell,ioos:station:wmo:42873:2,2022-08-01T17:51:00Z,28.1937,-89.1759,11.8,30.4,11111222
Shell,ioos:station:wmo:42873:2,2022-08-01T18:01:00Z,28.1938,-89.1758,11.8,30.4,11111222
Shell,ioos:station:wmo:42873:2,2022-08-01T18:11:00Z,28.1937,-89.1759,11.8,30.4,11111222
Shell,ioos:station:wmo:42873:2,2022-08-01T18:21:00Z,28.1937,-89.1758,11.8,30.4,11111222
Shell,ioos:station:wmo:42873:2,2022-08-01T18:31:00Z,28.1937,-89.1759,11.8,30.4,11111222
Shell,ioos:station:wmo:42873:2,2022-08-01T18:41:00Z,28.1938,-89.1758,11.8,30.5,11111222
Shell,ioos:station:wmo:42873:2,2022-08-01T18:51:00Z,28.1937,-89.1759,11.7,30.4,11111222
Shell,ioos:station:wmo:42873:2,2022-08-01T19:01:00Z,28.1937,-89.1759,11.7,30.5,11111222
Shell,ioos:station:wmo:42873:2,2022-08-01T19:11:00Z,28.1937,-89.1759,11.7,30.5,11111222
Shell,ioos:station:wmo:42873:2,2022-08-01T19:21:00Z,28.1937,-89.1759,11.8,30.5,11111222
Shell,ioos:station:wmo:42873:2,2022-08-01T19:31:00Z,28.1937,-89.1759,11.9,30.4,11111222
Shell,ioos:station:wmo:42873:2,2022-08-01T19:41:00Z,28.1932,-89.1761,11.9,30.4,11111222
Shell,ioos:station:wmo:42873:2,2022-08-01T19:51:00Z,28.1938,-89.1758,11.9,30.4,11111222
Shell,ioos:station:wmo:42873:2,2022-08-01T20:01:00Z,28.1938,-89.1757,11.9,30.4,11111222
Shell,ioos:station:wmo:42873:2,2022-08-01T20:11:00Z,28.1939,-89.1758,11.9,30.4,11111222
Shell,ioos:station:wmo:42873:2,2022-08-01T20:21:00Z,28.1939,-89.1757,11.8,30.4,11111222
Shell,ioos:station:wmo:42873:2,2022-08-01T20:31:00Z,28.1938,-89.1758,11.8,30.4,11111222
Shell,ioos:station:wmo:42873:2,2022-08-01T20:41:00Z,28.1935,-89.1759,11.8,30.4,11111222
Shell,ioos:station:wmo:42873:2,2022-08-01T20:51:00Z,28.1937,-89.1758,11.7,30.3,11111222
Shell,ioos:station:wmo:42873:2,2022-08-01T21:01:00Z,28.1937,-89.1759,11.7,30.3,11111222
Shell,ioos:station:wmo:42873:2,2022-08-01T21:11:00Z,28.1937,-89.1759,11.8,30.3,11111222
Shell,ioos:station:wmo:42873:2,2022-08-01T21:21:00Z,28.1939,-89.1756,11.8,30.3,11111222
Shell,ioos:station:wmo:42873:2,2022-08-01T21:31:00Z,28.1938,-89.1758,11.8,30.4,11111222
Shell,ioos:station:wmo:42873:2,2022-08-01T21:41:00Z,28.1939,-89.1757,11.9,30.4,11111222
Shell,ioos:station:wmo:42873:2,2022-08-01T21:51:00Z,28.1939,-89.1758,11.9,30.4,11111222
Shell,ioos:station:wmo:42873:2,2022-08-01T22:01:00Z,28.1936,-89.1759,11.9,30.4,11111222
Shell,ioos:station:wmo:42873:2,2022-08-01T22:11:00Z,28.1939,-89.1758,11.9,30.4,11111222
Shell,ioos:station:wmo:42873:2,2022-08-01T22:21:00Z,28.1939,-89.1760,11.8,30.4,11111222
Shell,ioos:station:wmo:42873:2,2022-08-01T22:31:00Z,28.1932,-89.1761,11.8,30.4,11111222
Shell,ioos:station:wmo:42873:2,2022-08-01T22:41:00Z,28.1941,-89.1758,11.9,30.4,11111222
Shell,ioos:station:wmo:42873:2,2022-08-01T22:51:00Z,28.1939,-89.1759,11.9,30.4,11111222
Shell,ioos:station:wmo:42873:2,2022-08-01T23:01:00Z,28.1938,-89.1759,11.9,30.4,11111222
Shell,ioos:station:wmo:42873:2,2022-08-01T23:11:00Z,28.1938,-89.1758,11.9,30.4,11111222
Shell,ioos:station:wmo:42873:2,2022-08-01T23:22:00Z,28.1937,-89.1759,11.9,30.4,11111222
Shell,ioos:station:wmo:42873:2,2022-08-01T23:32:00Z,28.1937,-89.1759,11.9,30.4,11111222
Shell,ioos:station:wmo:42873:2,2022-08-01T23:42:00Z,28.1937,-89.1759,11.9,30.4,11111222
Shell,ioos:station:wmo:42873:2,2022-08-01T23:52:00Z,28.1938,-89.1758,12.0,30.4,11111222
Shell,ioos:station:wmo:42873:2,2022-08-02T00:02:00Z,28.1936,-89.1759,12.0,30.4,11111222
Shell,ioos:station:wmo:42873:2,2022-08-02T00:12:00Z,28.1938,-89.1758,12.0,30.4,11111222
Shell,ioos:station:wmo:42873:2,2022-08-02T00:22:00Z,28.1937,-89.1759,12.0,30.5,11111222
Shell,ioos:station:wmo:42873:2,2022-08-02T00:32:00Z,28.1938,-89.1758,12.0,30.5,11111222
Shell,ioos:station:wmo:42873:2,2022-08-02T00:42:00Z,28.1937,-89.1759,12.0,30.5,11111222
Shell,ioos:station:wmo:42873:2,2022-08-02T00:52:00Z,28.1938,-89.1759,12.0,30.4,11111222
Shell,ioos:station:wmo:42873:2,2022-08-02T01:02:00Z,28.1938,-89.1758,12.0,30.5,11111222
Shell,ioos:station:wmo:42873:2,2022-08-02T01:12:00Z,28.1938,-89.1758,12.0,30.5,11111222
Shell,ioos:station:wmo:42873:2,2022-08-02T01:22:00Z,28.1938,-89.1759,12.0,30.5,11111222
Shell,ioos:station:wmo:42873:2,2022-08-02T01:32:00Z,28.1937,-89.1759,12.0,30.5,11111222
Shell,ioos:station:wmo:42873:2,2022-08-02T01:42:00Z,28.1937,-89.1759,12.0,30.5,11111222
Shell,ioos:station:wmo:42873:2,2022-08-02T01:52:00Z,28.1938,-89.1759,12.1,30.5,11111222
Shell,ioos:station:wmo:42873:2,2022-08-02T02:02:00Z,28.1939,-89.1759,12.0,30.5,11111222
Shell,ioos:station:wmo:42873:2,2022-08-02T02:12:00Z,28.1938,-89.1759,12.0,30.5,11111222
Shell,ioos:station:wmo:42873:2,2022-08-02T02:22:00Z,28.1938,-89.1759,12.0,30.5,11111222
Shell,ioos:station:wmo:42873:2,2022-08-02T02:32:00Z,28.1935,-89.1760,12.0,30.5,11111222
Shell,ioos:station:wmo:42873:2,2022-08-02T02:42:00Z,28.1936,-89.1759,12.0,30.5,11111222
Shell,ioos:station:wmo:42873:2,2022-08-02T02:52:00Z,28.1942,-89.1756,12.0,30.5,11111222
Shell,ioos:station:wmo:42873:2,2022-08-02T03:02:00Z,28.1937,-89.1758,12.0,30.5,11111222
Shell,ioos:station:wmo:42873:2,2022-08-02T03:12:00Z,28.1937,-89.1759,12.0,30.5,11111222
Shell,ioos:station:wmo:42873:2,2022-08-02T03:22:00Z,28.1937,-89.1759,12.0,30.5,11111222
Shell,ioos:station:wmo:42873:2,2022-08-02T03:32:00Z,28.1937,-89.1759,12.0,30.5,11111222
Shell,ioos:station:wmo:42873:2,2022-08-02T03:42:00Z,28.1934,-89.1760,12.0,30.5,11111222
Shell,ioos:station:wmo:42873:2,2022-08-02T03:52:00Z,28.1937,-89.1759,12.1,30.5,11111222
Shell,ioos:station:wmo:42873:2,2022-08-02T04:02:00Z,28.1936,-89.1760,12.0,30.5,11111222
Shell,ioos:station:wmo:42873:2,2022-08-02T04:12:00Z,28.1939,-89.1758,12.0,30.5,11111222
Shell,ioos:station:wmo:42873:2,2022-08-02T04:22:00Z,28.1938,-89.1758,12.0,30.5,11111222
Shell,ioos:station:wmo:42873:2,2022-08-02T04:32:00Z,28.1937,-89.1759,12.0,30.5,11111222
Shell,ioos:station:wmo:42873:2,2022-08-02T04:42:00Z,28.1937,-89.1758,12.0,30.5,11111222
Shell,ioos:station:wmo:42873:2,2022-08-02T04:52:00Z,28.1935,-89.1761,12.0,30.5,11111222
Shell,ioos:station:wmo:42873:2,2022-08-02T05:02:00Z,28.1937,-89.1759,12.0,30.5,11111222
Shell,ioos:station:wmo:42873:2,2022-08-02T05:12:00Z,28.1938,-89.1759,12.0,30.5,11111222
Shell,ioos:station:wmo:42873:2,2022-08-02T05:22:00Z,28.1937,-89.1760,12.0,30.5,11111222
Shell,ioos:station:wmo:42873:2,2022-08-02T05:32:00Z,28.1937,-89.1760,12.0,30.4,11111222
Shell,ioos:station:wmo:42873:2,2022-08-02T05:42:00Z,28.1941,-89.1765,12.0,30.4,11111222
Shell,ioos:station:wmo:42873:2,2022-08-02T05:52:00Z,28.1944,-89.1767,12.0,30.4,11111222
Shell,ioos:station:wmo:42873:2,2022-08-02T06:02:00Z,28.1943,-89.1768,12.0,30.4,11111222
Shell,ioos:station:wmo:42873:2,2022-08-02T06:12:00Z,28.1942,-89.1768,12.0,30.4,11111222
Shell,ioos:station:wmo:42873:2,2022-08-02T06:22:00Z,28.1943,-89.1768,12.0,30.4,11111222
Shell,ioos:station:wmo:42873:2,2022-08-02T06:32:00Z,28.1943,-89.1768,12.0,30.4,11111222
Shell,ioos:station:wmo:42873:2,2022-08-02T06:42:00Z,28.1943,-89.1768,12.0,30.4,11111222
Shell,ioos:station:wmo:42873:2,2022-08-02T06:53:00Z,28.1945,-89.1768,12.0,30.4,11111222
Shell,ioos:station:wmo:42873:2,2022-08-02T07:03:00Z,28.1944,-89.1768,12.0,30.4,11111222
Shell,ioos:station:wmo:42873:2,2022-08-02T07:13:00Z,28.1948,-89.1768,12.0,30.4,11111222
Shell,ioos:station:wmo:42873:2,2022-08-02T07:23:00Z,28.1943,-89.1768,12.0,30.4,11111222
Shell,ioos:station:wmo:42873:2,2022-08-02T07:33:00Z,28.1943,-89.1768,12.0,30.4,11111222
Shell,ioos:station:wmo:42873:2,2022-08-02T07:43:00Z,28.1945,-89.1768,12.0,30.4,11111222
Shell,ioos:station:wmo:42873:2,2022-08-02T07:53:00Z,28.1942,-89.1768,12.0,30.4,11111222
Shell,ioos:station:wmo:42873:2,2022-08-02T08:03:00Z,28.1946,-89.1768,12.0,30.4,11111222
Shell,ioos:station:wmo:42873:2,2022-08-02T08:13:00Z,28.1946,-89.1769,12.0,30.4,11111222
Shell,ioos:station:wmo:42873:2,2022-08-02T08:23:00Z,28.1945,-89.1768,12.0,30.4,11111222
Shell,ioos:station:wmo:42873:2,2022-08-02T08:33:00Z,28.1945,-89.1768,12.0,30.4,11111222
Shell,ioos:station:wmo:42873:2,2022-08-02T08:43:00Z,28.1946,-89.1768,12.0,30.4,11111222
Shell,ioos:station:wmo:42873:2,2022-08-02T08:53:00Z,28.1945,-89.1768,12.0,30.3,11111222
Shell,ioos:station:wmo:42873:2,2022-08-02T09:03:00Z,28.1944,-89.1768,12.0,30.3,11111222
Shell,ioos:station:wmo:42873:2,2022-08-02T09:13:00Z,28.1943,-89.1768,12.0,30.3,11111222
Shell,ioos:station:wmo:42873:2,2022-08-02T09:23:00Z,28.1944,-89.1768,12.0,30.3,11111222
Shell,ioos:station:wmo:42873:2,2022-08-02T09:33:00Z,28.1944,-89.1768,12.0,30.3,11111222
Shell,ioos:station:wmo:42873:2,2022-08-02T09:43:00Z,28.1943,-89.1768,12.0,30.3,11111222
Shell,ioos:station:wmo:42873:2,2022-08-02T09:53:00Z,28.1944,-89.1768,12.0,30.3,11111222
Shell,ioos:station:wmo:42873:2,2022-08-02T10:03:00Z,28.1944,-89.1768,12.0,30.4,11111222
Shell,ioos:station:wmo:42873:2,2022-08-02T10:13:00Z,28.1944,-89.1768,12.0,30.4,11111222
Shell,ioos:station:wmo:42873:2,2022-08-02T10:23:00Z,28.1944,-89.1768,12.0,30.4,11111222
Shell,ioos:station:wmo:42873:2,2022-08-02T10:33:00Z,28.1945,-89.1768,11.9,30.4,11111222
Shell,ioos:station:wmo:42873:2,2022-08-02T10:43:00Z,28.1944,-89.1768,12.0,30.4,11111222
Shell,ioos:station:wmo:42873:2,2022-08-02T10:53:00Z,28.1940,-89.1767,11.9,30.4,11111222
Shell,ioos:station:wmo:42873:2,2022-08-02T11:03:00Z,28.1944,-89.1767,12.0,30.4,11111222
Shell,ioos:station:wmo:42873:2,2022-08-02T11:13:00Z,28.1943,-89.1768,12.0,30.4,11111222
Shell,ioos:station:wmo:42873:2,2022-08-02T11:23:00Z,28.1943,-89.1767,12.0,30.4,11111222
Shell,ioos:station:wmo:42873:2,2022-08-02T11:33:00Z,28.1944,-89.1768,12.0,30.4,11111222
Shell,ioos:station:wmo:42873:2,2022-08-02T11:43:00Z,28.1944,-89.1768,11.9,30.4,11111222
Shell,ioos:station:wmo:42873:2,2022-08-02T11:53:00Z,28.1944,-89.1768,12.0,30.4,11111222
Shell,ioos:station:wmo:42873:2,2022-08-02T12:03:00Z,28.1944,-89.1768,11.9,30.3,11111222
Shell,ioos:station:wmo:42873:2,2022-08-02T12:13:00Z,28.1944,-89.1767,11.9,30.3,11111222
Shell,ioos:station:wmo:42873:2,2022-08-02T12:23:00Z,28.1947,-89.1768,12.0,30.3,11111222
Shell,ioos:station:wmo:42873:2,2022-08-02T12:33:00Z,28.1943,-89.1768,11.9,30.3,11111222
Shell,ioos:station:wmo:42873:2,2022-08-02T12:43:00Z,28.1945,-89.1768,11.9,30.2,11111222
Shell,ioos:station:wmo:42873:2,2022-08-02T12:53:00Z,28.1944,-89.1768,11.9,30.2,11111222
Shell,ioos:station:wmo:42873:2,2022-08-02T13:03:00Z,28.1944,-89.1768,11.9,30.2,11111222
Shell,ioos:station:wmo:42873:2,2022-08-02T13:13:00Z,28.1943,-89.1768,11.9,30.2,11111222
Shell,ioos:station:wmo:42873:2,2022-08-02T13:23:00Z,28.1946,-89.1769,11.9,30.2,11111222
Shell,ioos:station:wmo:42873:2,2022-08-02T13:33:00Z,28.1946,-89.1769,11.9,30.2,11111222
Shell,ioos:station:wmo:42873:2,2022-08-02T13:43:00Z,28.1942,-89.1768,11.9,30.2,11111222
Shell,ioos:station:wmo:42873:2,2022-08-02T13:53:00Z,28.1942,-89.1769,11.9,30.2,11111222
Shell,ioos:station:wmo:42873:2,2022-08-02T14:03:00Z,28.1944,-89.1768,11.9,30.2,11111222
Shell,ioos:station:wmo:42873:2,2022-08-02T14:14:00Z,28.1944,-89.1768,11.9,30.1,11111222
Shell,ioos:station:wmo:42873:2,2022-08-02T14:24:00Z,28.1943,-89.1768,11.9,30.0,11111222
Shell,ioos:station:wmo:42873:2,2022-08-02T14:34:00Z,28.1944,-89.1768,11.8,30.0,11111222
Shell,ioos:station:wmo:42873:2,2022-08-02T14:44:00Z,28.1944,-89.1768,11.7,30.0,11111222
Shell,ioos:station:wmo:42873:2,2022-08-02T14:54:00Z,28.1942,-89.1768,11.7,30.0,11111222
Shell,ioos:station:wmo:42873:2,2022-08-02T15:04:00Z,28.1944,-89.1768,11.7,30.0,11111222
Shell,ioos:station:wmo:42873:2,2022-08-02T15:14:00Z,28.1944,-89.1767,11.7,30.0,11111222
Shell,ioos:station:wmo:42873:2,2022-08-02T15:24:00Z,28.1943,-89.1768,11.6,30.0,11111222
Shell,ioos:station:wmo:42873:2,2022-08-02T15:34:00Z,28.1944,-89.1768,11.6,30.0,11111222
Shell,ioos:station:wmo:42873:2,2022-08-02T15:44:00Z,28.1944,-89.1768,11.6,30.0,11111222
Shell,ioos:station:wmo:42873:2,2022-08-02T15:54:00Z,28.1944,-89.1768,11.5,30.0,11111222
Shell,ioos:station:wmo:42873:2,2022-08-02T16:04:00Z,28.1944,-89.1768,11.5,30.0,11111222
Shell,ioos:station:wmo:42873:2,2022-08-02T16:14:00Z,28.1944,-89.1768,11.5,30.0,11111222
Shell,ioos:station:wmo:42873:2,2022-08-02T16:24:00Z,28.1939,-89.1769,11.6,30.0,11111222
Shell,ioos:station:wmo:42873:2,2022-08-02T16:34:00Z,28.1943,-89.1768,11.6,30.0,11111222
Shell,ioos:station:wmo:42873:2,2022-08-02T16:44:00Z,28.1944,-89.1768,11.6,30.0,11111222
Shell,ioos:station:wmo:42873:2,2022-08-02T16:54:00Z,28.1944,-89.1767,11.6,30.0,11111222
Shell,ioos:station:wmo:42873:2,2022-08-02T17:04:00Z,28.1943,-89.1768,11.5,30.0,11111222
Shell,ioos:station:wmo:42873:2,2022-08-02T17:14:00Z,28.1943,-89.1768,11.5,30.0,11111222
Shell,ioos:station:wmo:42873:2,2022-08-02T17:24:00Z,28.1943,-89.1768,11.5,30.0,11111222
Shell,ioos:station:wmo:42873:2,2022-08-02T17:34:00Z,28.1941,-89.1768,11.5,30.1,11111222
Shell,ioos:station:wmo:42873:2,2022-08-02T17:44:00Z,28.1944,-89.1768,11.4,30.1,11111222
Shell,ioos:station:wmo:42873:2,2022-08-02T17:54:00Z,28.1944,-89.1768,11.4,30.1,11111222
Shell,ioos:station:wmo:42873:2,2022-08-02T18:04:00Z,28.1945,-89.1768,11.4,30.1,11111222
Shell,ioos:station:wmo:42873:2,2022-08-02T18:14:00Z,28.1943,-89.1768,11.4,30.1,11111222
Shell,ioos:station:wmo:42873:2,2022-08-02T18:24:00Z,28.1944,-89.1766,11.4,30.1,11111222
Shell,ioos:station:wmo:42873:2,2022-08-02T18:34:00Z,28.1944,-89.1766,11.2,30.1,11111222
Shell,ioos:station:wmo:42873:2,2022-08-02T18:44:00Z,28.1945,-89.1765,11.2,30.1,11111222
Shell,ioos:station:wmo:42873:2,2022-08-02T18:54:00Z,28.1945,-89.1765,11.2,30.1,11111222
Shell,ioos:station:wmo:42873:2,2022-08-02T19:04:00Z,28.1944,-89.1766,11.1,30.1,11111222
Shell,ioos:station:wmo:42873:2,2022-08-02T19:14:00Z,28.1943,-89.1767,11.1,30.1,11111222
Shell,ioos:station:wmo:42873:2,2022-08-02T19:24:00Z,28.1944,-89.1767,11.1,30.1,11111222
Shell,ioos:station:wmo:42873:2,2022-08-02T19:34:00Z,28.1943,-89.1767,11.1,30.1,11111222
Shell,ioos:station:wmo:42873:2,2022-08-02T19:44:00Z,28.1942,-89.1767,11.1,30.1,11111222
Shell,ioos:station:wmo:42873:2,2022-08-02T19:54:00Z,28.1944,-89.1767,11.1,30.1,11111222
Shell,ioos:station:wmo:42873:2,2022-08-02T20:04:00Z,28.1944,-89.1767,11.0,30.1,11111222
Shell,ioos:station:wmo:42873:2,2022-08-02T20:14:00Z,28.1945,-89.1765,11.0,30.1,11111222
Shell,ioos:station:wmo:42873:2,2022-08-02T20:24:00Z,28.1942,-89.1767,11.1,30.1,11111222
Shell,ioos:station:wmo:42873:2,2022-08-02T20:34:00Z,28.1943,-89.1767,11.1,30.1,11111222
Shell,ioos:station:wmo:42873:2,2022-08-02T20:44:00Z,28.1943,-89.1767,11.1,30.1,11111222
Shell,ioos:station:wmo:42873:2,2022-08-02T20:54:00Z,28.1942,-89.1768,11.1,30.1,11111222